This is the latest recevied weather packets stored in our database for station/object KO4LFZ. If no packets are shown the sender has not sent any weather packets the latest 10 day(s).
| Time | Temp. | Humidity | Pressure | Rain* | Wind** | Luminosity | Snow |
|---|---|---|---|---|---|---|---|
| 1778176545 | 17.78° C | 44% | 1016.6 hPa | 0 mm | - | 727 W/m² | - |
| 1778176243 | 17.78° C | 45% | 1016.7 hPa | 0 mm | - | 736 W/m² | - |
| 1778175939 | 17.22° C | 47% | 1016.8 hPa | 0 mm | - | 734 W/m² | - |
| 1778175638 | 17.78° C | 46% | 1016.8 hPa | 0 mm | - | 754 W/m² | - |
| 1778175334 | 17.22° C | 49% | 1016.9 hPa | 0 mm | - | 775 W/m² | - |
| 1778175032 | 17.22° C | 51% | 1017.1 hPa | 0 mm | - | 768 W/m² | - |
| 1778174727 | 17.22° C | 47% | 1017.1 hPa | 0 mm | - | 750 W/m² | - |
| 1778174424 | 17.22° C | 49% | 1017 hPa | 0 mm | - | 752 W/m² | - |
| 1778174120 | 17.22° C | 47% | 1017 hPa | 0 mm | - | 739 W/m² | - |
| 1778173817 | 16.67° C | 50% | 1017.3 hPa | 0 mm | - | 721 W/m² | - |
| 1778173514 | 16.67° C | 49% | 1017.1 hPa | 0 mm | - | 726 W/m² | - |
| 1778173211 | 16.67° C | 51% | 1017.3 hPa | 0 mm | - | 727 W/m² | - |
| 1778172907 | 16.67° C | 46% | 1017.4 hPa | 0 mm | - | 704 W/m² | - |
| 1778172603 | 16.67° C | 48% | 1017.2 hPa | 0 mm | - | 669 W/m² | - |
| 1778172299 | 16.67° C | 46% | 1017.4 hPa | 0 mm | - | 672 W/m² | - |
| 1778171996 | 16.67° C | 47% | 1017.6 hPa | 0 mm | - | 719 W/m² | - |
| 1778171694 | 16.67° C | 48% | 1017.4 hPa | 0 mm | - | 776 W/m² | - |
| 1778171391 | 16.67° C | 49% | 1017.6 hPa | 0 mm | - | 812 W/m² | - |
| 1778171086 | 16.67° C | 50% | 1017.5 hPa | 0 mm | - | 838 W/m² | - |
| 1778170783 | 16.11° C | 51% | 1017.5 hPa | 0 mm | - | 812 W/m² | - |
| 1778170479 | 16.67° C | 49% | 1017.9 hPa | 0 mm | - | 817 W/m² | - |
| 1778170176 | 16.67° C | 49% | 1017.6 hPa | 0 mm | - | 830 W/m² | - |
| 1778169872 | 16.67° C | 50% | 1017.5 hPa | 0 mm | - | 818 W/m² | - |
| 1778169568 | 16.11° C | 52% | 1017.7 hPa | 0 mm | - | 838 W/m² | - |
| 1778169264 | 16.11° C | 52% | 1017.7 hPa | 0 mm | - | 838 W/m² | - |
* Rain latest hour (hover to see other rain measurements)
** Current wind speed in m/s (hover to see current wind gust speed)